Demopolis Municipal Airport, AL

5:02 AM CST on January 28, 2020 (GMT -0600)
Demopolis Municipal Airport

Weather History for KDYA - December, 2019

Change the Weather History Date:

Sunday, December 8, 2019

  Actual Average (KNMM) Record (KNMM)
Temperature  
Mean Temperature 57 °F -  
Max Temperature 68 °F 57 °F 77 °F (2007)
Min Temperature 46 °F 39 °F 23 °F (2010)
Degree Days  
Heating Degree Days 8    
Growing Degree Days 7 (Base 50)    
Moisture  
Dew Point 52 °F    
Average Humidity 80    
Maximum Humidity 100    
Minimum Humidity 58    
Precipitation  
Precipitation 0.00 in - - ()
Sea Level Pressure  
Sea Level Pressure 30.12 in    
Wind  
Wind Speed 3 mph ()    
Max Wind Speed 9 mph    
Max Gust Speed 16 mph    
Visibility 9.8 miles    
Events Rain    
Averages and records for this station are not official NWS values.
T = Trace of Precipitation, MM = Missing Value Source: Averaged Metar Reports

Daily Weather History Graph

Daily Weather History Graph

Search for Another Location

Airport or City:

Astronomy

Dec. 08, 2019 Rise Set
Actual Time 6:40 AM CST 4:46 PM CST
Civil Twilight 6:13 AM CST 5:13 PM CST
Nautical Twilight 5:43 AM CST 5:43 PM CST
Astronomical Twilight 5:13 AM CST 6:13 PM CST
Moon 2:42 PM CST (12/8) 3:03 AM CST (12/8)
Length of Visible Light 10h 59m
Length of Day
10h 05m
Waxing Gibbous, 88% of the Moon is Illuminated
Dec 8
Waxing Gibbous
Dec 11
Full
Dec 18
Last Quarter
Dec 25
New
Jan 2
First Quarter

Hourly Weather History & Observations

Time (CST) Temp. Dew Point Humidity Pressure Visibility Wind Dir Wind Speed Gust Speed Precip Events Conditions
12:35 AM 50.0 °F 49.1 °F 97% 30.19 in 10.0 mi Calm Calm - N/A   Overcast
12:55 AM 50.7 °F 49.8 °F 97% 30.18 in 10.0 mi Calm Calm - N/A   Overcast
1:55 AM 46.9 °F 46.0 °F 97% 30.17 in 5.0 mi Calm Calm - N/A   Scattered Clouds
2:15 AM 47.3 °F 47.3 °F 100% 30.17 in 7.0 mi Calm Calm - N/A   Mostly Cloudy
2:55 AM 48.2 °F 48.2 °F 100% 30.16 in 10.0 mi Calm Calm - N/A   Overcast
3:15 AM 48.2 °F 48.2 °F 100% 30.16 in 10.0 mi Calm Calm - N/A   Overcast
3:35 AM 48.2 °F 48.2 °F 100% 30.17 in 10.0 mi Calm Calm - N/A   Overcast
4:15 AM 49.6 °F 49.6 °F 100% 30.16 in 10.0 mi Calm Calm - N/A   Overcast
4:35 AM 50.4 °F 50.4 °F 100% 30.17 in 10.0 mi Calm Calm - N/A   Overcast
4:55 AM 51.1 °F 51.1 °F 100% 30.17 in 10.0 mi Calm Calm - N/A   Overcast
5:35 AM 52.9 °F 48.9 °F 86% 30.17 in 10.0 mi East 3.5 mph - N/A   Overcast
5:55 AM 53.4 °F 48.2 °F 82% 30.18 in 10.0 mi East 3.5 mph - N/A   Overcast
6:35 AM 54.0 °F 47.3 °F 78% 30.18 in 10.0 mi East 5.8 mph - N/A   Overcast
6:55 AM 53.8 °F 46.9 °F 78% 30.18 in 10.0 mi East 4.6 mph - N/A   Overcast
7:15 AM 53.8 °F 46.8 °F 77% 30.19 in 10.0 mi East 6.9 mph - N/A   Overcast
7:35 AM 53.8 °F 46.6 °F 77% 30.19 in 10.0 mi East 4.6 mph - N/A   Overcast
7:55 AM 54.3 °F 46.6 °F 75% 30.20 in 10.0 mi East 3.5 mph - N/A   Overcast
8:35 AM 56.1 °F 47.3 °F 72% 30.19 in 10.0 mi East 6.9 mph - N/A   Overcast
9:35 AM 57.9 °F 48.2 °F 70% 30.22 in 10.0 mi ESE 4.6 mph - N/A   Overcast
9:55 AM 59.5 °F 49.1 °F 68% 30.21 in 10.0 mi ESE 6.9 mph - N/A   Overcast
10:15 AM 61.2 °F 49.1 °F 65% 30.20 in 10.0 mi ESE 6.9 mph - N/A   Overcast
11:15 AM 64.4 °F 50.2 °F 60% 30.15 in 10.0 mi ESE 8.1 mph - N/A   Mostly Cloudy
12:35 PM 66.0 °F 52.0 °F 60% 30.11 in 10.0 mi SE 9.2 mph 16.1 mph N/A   Scattered Clouds
1:55 PM 68.7 °F 53.4 °F 58% 30.07 in 10.0 mi ESE 9.2 mph - N/A   Overcast
2:35 PM 68.5 °F 53.2 °F 58% 30.07 in 10.0 mi SE 6.9 mph - N/A   Mostly Cloudy
2:55 PM 68.4 °F 53.6 °F 59% 30.06 in 10.0 mi SE 8.1 mph - N/A   Overcast
3:15 PM 68.2 °F 54.0 °F 60% 30.06 in 10.0 mi Calm Calm - N/A   Overcast
4:15 PM 66.7 °F 54.9 °F 66% 30.05 in 10.0 mi ESE 6.9 mph - N/A   Overcast
4:35 PM 66.2 °F 54.9 °F 67% 30.04 in 10.0 mi ESE 6.9 mph - N/A   Overcast
4:55 PM 65.5 °F 55.0 °F 69% 30.04 in 10.0 mi ESE 5.8 mph - N/A   Overcast
5:15 PM 65.5 °F 55.4 °F 70% 30.04 in 10.0 mi ESE 5.8 mph - N/A   Overcast
5:55 PM 64.4 °F 56.1 °F 74% 30.04 in 10.0 mi ESE 5.8 mph - N/A   Overcast
6:35 PM 63.5 °F 56.7 °F 78% 30.07 in 10.0 mi Calm Calm - N/A   Light Drizzle
6:55 PM 62.8 °F 57.0 °F 81% 30.07 in 10.0 mi SE 3.5 mph - N/A Rain Light Rain
7:15 PM 62.2 °F 57.4 °F 84% 30.07 in 10.0 mi Calm Calm - N/A Rain Light Rain
7:55 PM 61.7 °F 57.4 °F 86% 30.06 in 10.0 mi ESE 5.8 mph - N/A Rain Rain
8:35 PM 60.6 °F 57.7 °F 90% 30.05 in 10.0 mi ESE 3.5 mph - N/A Rain Rain
9:15 PM 60.8 °F 57.4 °F 88% 30.03 in 10.0 mi Calm Calm - N/A   Overcast
10:35 PM 60.8 °F 56.7 °F 86% 30.02 in 10.0 mi SE 5.8 mph - N/A   Overcast
11:15 PM 60.4 °F 56.3 °F 86% 30.02 in 10.0 mi ESE 5.8 mph - N/A   Overcast
11:35 PM 60.4 °F 56.3 °F 86% 30.02 in 10.0 mi SE 4.6 mph - N/A   Overcast
11:55 PM 60.8 °F 56.3 °F 85% 30.02 in 10.0 mi SE 5.8 mph - N/A   Overcast